[[{"header":{"parameterUnit":"m.s-1","parameterCategory":1,"la1":30.2991,"la2":30.254,"lo1":-89.0895,"lo2":-89.0444,"dy":0.0017,"dx":0.0017,"nx":28,"ny":28,"refTime":"2025-12-13T03:00:00:Z","depth":0,"parameterNumber":2,"parameterNumberName":"U-component_of_WINDS"},"data":[0,0,0,0,0,0,0,0,0,0,0,0,0,0,0,0,0,0,0,0,0,0,0,0,0,0,0,0,0,0,0,0,0,0,0,0,0,0,0,0,0,0,0,0,0,0,0,0,0,0,0,0,0,0,0,0,0,0,-1.568,-1.568,0,-1.5736,-1.5736,-1.5737,-1.5715,-1.5713,-1.5712,-1.5711,-1.5768,-1.5771,-1.5773,0,0,0,0,0,0,0,0,0,0,0,0,0,-1.5554,-1.5556,-1.5679,-1.568,-1.5681,-1.5736,-1.5736,-1.5737,-1.5715,-1.5713,-1.5712,-1.571,-1.5767,-1.577,-1.5774,0,0,0,0,0,0,0,0,0,0,0,0,0,-1.5609,-1.5557,-1.5679,-1.5676,-1.5677,-1.5736,-1.5737,-1.5737,-1.5715,-1.5713,-1.5711,-1.571,-1.5766,-1.577,-1.5774,-1.5839,0,0,-1.5787,-1.5789,0,0,0,0,0,0,0,0,-1.5606,-1.5614,-1.5676,-1.5677,-1.5677,-1.5716,-1.5713,-1.5772,-1.5716,-1.5701,-1.5711,-1.5709,-1.5752,-1.5758,-1.5772,-1.5842,-1.5844,-1.5787,-1.579,-1.5791,-1.5793,0,0,0,0,0,0,0,-1.5602,-1.5611,-1.5702,-1.5677,-1.5678,-1.5673,-1.5678,-1.5724,-1.5737,-1.5702,-1.57,-1.5707,-1.5752,-1.5768,-1.5774,-1.5845,-1.5787,-1.5791,-1.5793,-1.5795,-1.5972,-1.5974,0,0,0,0,0,0,-1.5598,-1.5608,-1.57,-1.5703,-1.5636,-1.5677,-1.5683,-1.5706,-1.5736,-1.5739,-1.5709,-1.5706,-1.5762,-1.5769,-1.5776,-1.5854,-1.5791,-1.5795,-1.5798,-1.597,-1.5972,-1.5975,0,0,0,0,0,0,-1.5595,-1.5606,-1.5698,-1.5655,-1.5667,-1.5681,-1.5707,-1.5708,-1.5724,-1.5742,-1.5744,-1.5723,-1.5761,-1.577,-1.5824,-1.5855,-1.5797,-1.5801,-1.5967,-1.597,-1.5973,-1.6011,0,0,0,0,0,0,-1.5592,-1.5606,-1.563,-1.5656,-1.5669,-1.5745,-1.5709,-1.571,-1.5731,-1.5728,-1.5756,-1.5758,-1.576,-1.5818,-1.5828,-1.586,-1.5804,-1.5964,-1.5968,-1.5972,-1.6007,-1.6015,-1.6022,0,0,0,0,0,-1.5588,-1.5638,-1.5631,-1.5643,-1.57,-1.5747,-1.5754,-1.5755,-1.5734,-1.5759,-1.5771,-1.5757,-1.5851,-1.5823,-1.5835,-1.5869,-1.5962,-1.5967,-1.5972,-1.6003,-1.6013,-1.6022,0,0,0,0,0,0,-1.5614,-1.5641,-1.5634,-1.5694,-1.5719,-1.5743,-1.5774,-1.5766,-1.5796,-1.5792,-1.5792,-1.5799,-1.5855,-1.5867,-1.5836,-1.5934,-1.5903,-1.5911,-1.5923,-1.5933,-1.594,-1.5935,-1.5807,0,0,0,0,0,-1.5627,-1.5663,-1.5685,-1.5736,-1.5748,-1.5759,-1.578,-1.5779,-1.5804,-1.5814,-1.5829,-1.5854,-1.5889,-1.5912,-1.5945,-1.6009,-1.6015,-1.6038,-1.6046,-1.6052,-1.6058,-1.6094,-1.6104,-1.5991,-1.5991,-1.5991,0,0,-1.5654,-1.5674,-1.5696,-1.5742,-1.576,-1.5797,-1.5768,-1.5808,-1.5836,-1.582,-1.5871,-1.5884,-1.5912,-1.5972,-1.5999,-1.5984,-1.6091,-1.6058,-1.6063,-1.6066,-1.61,-1.6111,-1.612,-1.5995,-1.5994,-1.5993,0,0,-1.5722,-1.5741,-1.5785,-1.5805,-1.5834,-1.5841,-1.5852,-1.5878,-1.5886,-1.5939,-1.5928,-1.5961,-1.6021,-1.6041,-1.606,-1.6138,-1.6127,-1.6149,-1.6188,-1.6223,-1.6232,-1.624,-1.6268,-1.6278,-1.6156,-1.6156,-1.6156,0,-1.5752,-1.5807,-1.5809,-1.5851,-1.5872,-1.586,-1.5906,-1.5925,-1.5963,-1.5978,-1.5961,-1.6037,-1.6055,-1.612,-1.6139,-1.6154,-1.6167,-1.6145,-1.6231,-1.6239,-1.6246,-1.6273,-1.6283,-1.6158,-1.6158,-1.6158,-1.6157,0,-1.5842,-1.5881,-1.5914,-1.5952,-1.5977,-1.602,-1.6029,-1.6054,-1.6053,-1.6062,-1.6116,-1.6138,-1.6175,-1.6191,-1.6189,-1.6256,-1.6246,-1.623,-1.6199,-1.6259,-1.6284,-1.6294,-1.6161,-1.6161,-1.616,-1.6159,0,0,-1.5926,-1.5966,-1.5978,-1.5996,-1.6028,-1.6058,-1.6102,-1.6139,-1.6161,-1.6189,-1.6225,-1.6278,-1.6264,-1.6285,-1.6285,-1.6316,-1.6377,-1.6297,-1.6298,-1.6311,-1.6453,-1.6463,-1.6475,-1.6371,-1.6373,-1.6375,-1.645,0,-1.5996,-1.6073,-1.6077,-1.6146,-1.6183,-1.6174,-1.6212,-1.6236,-1.6247,-1.6279,-1.6291,-1.6328,-1.6307,-1.632,-1.635,-1.6363,-1.6406,-1.6358,-1.6405,-1.6407,-1.6397,-1.6488,-1.6499,-1.6569,-1.646,-1.6462,-1.6463,0,-1.6087,-1.6118,-1.6192,-1.622,-1.6235,-1.627,-1.6305,-1.6336,-1.6364,-1.637,-1.6395,-1.6392,-1.6437,-1.6406,-1.6469,-1.6437,-1.6457,-1.6467,-1.647,-1.6473,-1.6437,-1.6493,-1.6591,-1.6602,-1.6478,-1.6477,-1.6476,0,-1.614,-1.6201,-1.6253,-1.6268,-1.6303,-1.6327,-1.6343,-1.6369,-1.6391,-1.6423,-1.6438,-1.6474,-1.6494,-1.6522,-1.6529,-1.6506,-1.6592,-1.6562,-1.6598,-1.6598,-1.6615,-1.6614,-1.6717,-1.663,-1.663,-1.663,-1.663,0,-1.6217,-1.6262,-1.6277,-1.6309,-1.636,-1.6365,-1.6415,-1.6429,-1.6453,-1.6487,-1.6483,-1.6515,-1.6523,-1.6558,-1.6564,-1.6615,-1.6625,-1.6631,-1.6631,-1.663,-1.6629,-1.6642,-1.6637,-1.6633,-1.6632,-1.6631,-1.6631,0,-1.6284,-1.6296,-1.6352,-1.6381,-1.6389,-1.6425,-1.645,-1.6481,-1.6492,-1.6536,-1.6547,-1.6564,-1.6605,-1.6615,-1.6664,-1.6668,-1.6729,-1.6725,-1.6719,-1.6718,-1.6754,-1.675,-1.6868,-1.6884,-1.6788,-1.6788,-1.6789,0,-1.6332,-1.6366,-1.6399,-1.6423,-1.6439,-1.6477,-1.65,-1.6508,-1.6532,-1.6568,-1.6595,-1.6635,-1.6667,-1.6733,-1.675,-1.6788,-1.6785,-1.6824,-1.679,-1.6788,-1.6784,-1.6782,-1.6785,-1.6829,-1.683,-1.6831,-1.6832,0,-1.6415,-1.6419,-1.6453,-1.6491,-1.6519,-1.6548,-1.6576,-1.6596,-1.6607,-1.6636,-1.6678,-1.6703,-1.6753,-1.6793,-1.6832,-1.6848,-1.6842,-1.6843,-1.6853,-1.6851,-1.6846,-1.6849,-1.6735,-1.6839,-1.6838,-1.6838,-1.6838,-1.6837,-1.6473,-1.6503,-1.6532,-1.6571,-1.6593,-1.662,-1.6651,-1.6666,-1.6701,-1.6743,-1.6746,-1.6791,-1.682,-1.6871,-1.689,-1.6926,-1.6914,-1.6929,-1.6932,-1.6936,-1.6938,-1.6842,-1.6933,-1.6933,-1.6932,-1.6932,-1.6932,0,-1.6555,-1.6573,-1.6609,-1.6649,-1.668,-1.6673,-1.6704,-1.673,-1.677,-1.6798,-1.6831,-1.6879,-1.6919,-1.694,-1.6979,-1.7004,-1.7003,-1.7014,-1.7012,-1.7016,-1.6947,-1.6934,-1.7015,-1.7015,-1.7015,-1.7015,-1.7015,-1.7015,-1.6601,-1.6652,-1.6661,-1.6724,-1.6743,-1.6787,-1.6806,-1.6831,-1.6853,-1.6908,-1.6941,-1.6955,-1.698,-1.7022,-1.7058,-1.7063,-1.7078,-1.7091,-1.7094,-1.7029,-1.7021,-1.7012,-1.7,-1.7094,-1.7094,-1.716,-1.7161,-1.7161]},{"header":{"parameterUnit":"m.s-1","parameterCategory":1,"la1":30.2991,"la2":30.254,"lo1":-89.0895,"lo2":-89.0444,"dy":0.0017,"dx":0.0017,"nx":28,"ny":28,"refTime":"2025-12-13T03:00:00:Z","depth":0,"parameterNumber":3,"parameterNumberName":"V-component_of_WINDS"},"data":[0,0,0,0,0,0,0,0,0,0,0,0,0,0,0,0,0,0,0,0,0,0,0,0,0,0,0,0,0,0,0,0,0,0,0,0,0,0,0,0,0,0,0,0,0,0,0,0,0,0,0,0,0,0,0,0,0,0,1.6054,1.6054,0,1.6072,1.6073,1.6073,1.6145,1.6147,1.6148,1.615,1.6166,1.6165,1.6164,0,0,0,0,0,0,0,0,0,0,0,0,0,1.6079,1.6078,1.6054,1.6054,1.6054,1.6072,1.6073,1.6073,1.6145,1.6147,1.6149,1.6151,1.6166,1.6165,1.6164,0,0,0,0,0,0,0,0,0,0,0,0,0,1.608,1.6078,1.6054,1.6092,1.6096,1.6072,1.6073,1.6073,1.6144,1.6147,1.6149,1.6152,1.6167,1.6165,1.6164,1.6103,0,0,1.6158,1.6158,0,0,0,0,0,0,0,0,1.6079,1.6079,1.6086,1.609,1.6094,1.6109,1.6088,1.6083,1.6144,1.6126,1.615,1.6153,1.6145,1.6145,1.6143,1.6104,1.6105,1.6158,1.6157,1.6157,1.6156,0,0,0,0,0,0,0,1.6079,1.6078,1.6061,1.6086,1.6091,1.6108,1.6111,1.6087,1.6121,1.6127,1.6133,1.6134,1.6147,1.6144,1.6144,1.6105,1.6158,1.6157,1.6156,1.6155,1.6019,1.6017,0,0,0,0,0,0,1.6074,1.6078,1.6061,1.6062,1.6093,1.6106,1.6109,1.6101,1.6121,1.6127,1.6132,1.6137,1.6146,1.6146,1.6145,1.6077,1.6157,1.6155,1.6154,1.6022,1.6019,1.6016,0,0,0,0,0,0,1.6074,1.6072,1.606,1.6071,1.6071,1.6103,1.6094,1.6101,1.6098,1.6125,1.6131,1.6123,1.6148,1.6147,1.6114,1.6078,1.6154,1.6153,1.6025,1.6021,1.6017,1.5939,0,0,0,0,0,0,1.6075,1.6071,1.6049,1.607,1.607,1.6028,1.6091,1.6099,1.6095,1.6102,1.6118,1.6123,1.615,1.6116,1.6112,1.6077,1.6151,1.6028,1.6023,1.6019,1.5945,1.5933,1.5923,0,0,0,0,0,1.6075,1.6025,1.6048,1.6045,1.6043,1.6026,1.6026,1.6059,1.6092,1.607,1.6087,1.6123,1.6083,1.6112,1.6108,1.6072,1.6031,1.6025,1.6019,1.595,1.5936,1.5923,0,0,0,0,0,0,1.5998,1.6029,1.6054,1.6009,1.6015,1.6039,1.6011,1.6042,1.6038,1.6044,1.6085,1.6087,1.6048,1.6057,1.6089,1.6016,1.6063,1.6056,1.6012,1.5998,1.5987,1.5986,1.615,0,0,0,0,0,1.5976,1.596,1.5988,1.5946,1.5948,1.5979,1.5973,1.5998,1.6005,1.6007,1.6022,1.6027,1.6016,1.6007,1.5999,1.5947,1.5952,1.5921,1.591,1.59,1.5894,1.5868,1.5855,1.5997,1.5997,1.5997,0,0,1.5929,1.5945,1.5932,1.5931,1.5938,1.5921,1.598,1.5959,1.5947,1.6004,1.5974,1.5985,1.5993,1.595,1.5932,1.5956,1.5856,1.5893,1.5885,1.5884,1.5861,1.5848,1.5836,1.5993,1.5994,1.5994,0,0,1.5837,1.5846,1.5813,1.582,1.5831,1.5852,1.5844,1.5864,1.5874,1.5845,1.5887,1.5873,1.5852,1.5857,1.5856,1.5767,1.58,1.5763,1.5705,1.568,1.5669,1.5659,1.5628,1.5616,1.5757,1.5757,1.5756,0,1.5777,1.5754,1.5792,1.5769,1.5767,1.582,1.5786,1.5791,1.5797,1.5795,1.5822,1.5799,1.5808,1.5768,1.5746,1.5744,1.5736,1.5761,1.5667,1.5658,1.5649,1.562,1.5608,1.5752,1.5753,1.5753,1.5753,0,1.5682,1.5665,1.5637,1.5644,1.5639,1.5611,1.5644,1.5635,1.566,1.5679,1.5649,1.5662,1.5657,1.5649,1.5673,1.5613,1.5628,1.566,1.5708,1.5631,1.5604,1.5593,1.5746,1.5747,1.5749,1.575,0,0,1.5539,1.5569,1.5558,1.5563,1.5579,1.5567,1.5541,1.5538,1.553,1.5533,1.5513,1.5495,1.5526,1.5525,1.5551,1.5528,1.5458,1.5564,1.5565,1.5544,1.5393,1.5368,1.5355,1.548,1.5478,1.5476,1.5392,0,1.5451,1.541,1.5444,1.5397,1.5383,1.5433,1.5411,1.5418,1.5435,1.5425,1.5443,1.5431,1.5472,1.5472,1.5453,1.5471,1.5428,1.5477,1.5461,1.546,1.5458,1.5341,1.5314,1.5234,1.5382,1.538,1.5379,0,1.5343,1.5344,1.5295,1.5317,1.5312,1.5291,1.5292,1.5282,1.5292,1.5306,1.5306,1.5338,1.5314,1.5361,1.5329,1.5362,1.5358,1.5366,1.5363,1.5363,1.5415,1.5337,1.5209,1.5197,1.5363,1.5364,1.5365,0,1.5245,1.5233,1.5203,1.5205,1.5229,1.5214,1.5223,1.5236,1.5232,1.5233,1.5231,1.5227,1.5226,1.5222,1.5253,1.5284,1.5217,1.5266,1.5228,1.5227,1.5211,1.5211,1.508,1.5208,1.5208,1.5208,1.5208,0,1.5143,1.5112,1.516,1.5141,1.5107,1.5147,1.5112,1.5127,1.5138,1.5123,1.5165,1.515,1.5191,1.518,1.5203,1.5174,1.5172,1.5183,1.5189,1.5179,1.5178,1.5176,1.5183,1.5205,1.5206,1.5206,1.5207,0,1.5028,1.5058,1.5029,1.5055,1.5061,1.5035,1.5057,1.5041,1.5062,1.5042,1.504,1.5071,1.5061,1.5091,1.5084,1.51,1.5057,1.5073,1.5054,1.5059,1.5019,1.5022,1.4882,1.4866,1.5003,1.5002,1.5001,0,1.4961,1.4938,1.4962,1.4956,1.4964,1.4952,1.495,1.4988,1.4983,1.4994,1.4976,1.497,1.4966,1.4947,1.4969,1.4964,1.498,1.4932,1.498,1.497,1.498,1.4981,1.4979,1.4921,1.492,1.4918,1.4917,0,1.4839,1.4856,1.4851,1.4851,1.4847,1.4849,1.4853,1.4846,1.4887,1.4879,1.487,1.4867,1.4862,1.4855,1.4855,1.4864,1.4897,1.4902,1.4893,1.4882,1.4872,1.4877,1.5027,1.4905,1.4906,1.4907,1.4908,1.4908,1.4746,1.4729,1.4744,1.4737,1.4745,1.4749,1.4735,1.4755,1.4748,1.4748,1.4771,1.4757,1.4768,1.4773,1.4779,1.4768,1.479,1.4777,1.4773,1.4769,1.4763,1.4874,1.4768,1.4769,1.4769,1.4769,1.477,0,1.4627,1.464,1.4633,1.464,1.4634,1.4668,1.4675,1.4668,1.4656,1.4664,1.4661,1.465,1.4644,1.4666,1.4663,1.465,1.4665,1.4648,1.4649,1.4651,1.4743,1.4751,1.4636,1.4636,1.4636,1.4636,1.4636,1.4636,1.4565,1.4538,1.4556,1.4534,1.4547,1.4534,1.4536,1.454,1.4547,1.4534,1.4529,1.4545,1.4559,1.4557,1.4553,1.456,1.4556,1.4534,1.4545,1.4631,1.4644,1.4656,1.4665,1.4533,1.4532,1.4454,1.4453,1.4453]}]]